Station GDMM5 - 9099090 - Grand Marais, MN Image indicating link to RSS feed of recent meteorological observations for station GDMM5


Conditions at GDMM5 as of
(3:30 pm CDT)
2030 GMT on 04/16/2024:
     

Click on the graph icon in the table below to see a time series plot of the last five days of that observation.

5-day plot - Atmospheric Pressure Atmospheric Pressure (PRES):29.99 in
5-day plot - Air Temperature Air Temperature (ATMP): 49.6 °F
5-day plot - Dew Point Dew Point (DEWP): 24.1 °F
NOS Water Level Observation Network Water Level
Previous observations
TIME
(CDT)
5-day plot - Wind Direction
WDIR
 
5-day plot - Wind Speed
WSPD
kts
5-day plot - Wind Gust
GST
kts
5-day plot - Wave Height
WVHT
ft
5-day plot - Dominant Wave Period
DPD
sec
5-day plot - Average Wave Period
APD
sec
5-day plot - Mean Wave Direction
MWD
 
5-day plot - Atmospheric Pressure
PRES
in
5-day plot - Pressure Tendency
PTDY
in
5-day plot - Air Temperature
ATMP
°F
5-day plot - Water Temperature
WTMP
°F
5-day plot - Dew Point
DEWP
°F
5-day plot - Salinity
SAL
psu
5-day plot - Visibility
VIS
nmi
5-day plot - Tide (above MLLW)
TIDE
ft
2024-04-16 03:24 pm-------29.99- 50.0- 25.5---
2024-04-16 03:18 pm-------30.00- 48.9- 26.8---
2024-04-16 03:12 pm-------30.01- 48.2- 27.3---
2024-04-16 03:06 pm-------30.01- 48.2- 27.3---
2024-04-16 03:00 pm-------30.02-0.09 48.4- 26.4---
2024-04-16 02:54 pm-------30.03- 48.9- 25.3---
2024-04-16 02:48 pm-------30.03- 49.3- 24.1---
2024-04-16 02:42 pm-------30.03- 50.0- 22.8---
2024-04-16 02:36 pm-------30.03- 49.3- 23.5---
2024-04-16 02:30 pm-------30.03- 49.6- 23.5---
2024-04-16 02:24 pm-------30.04- 49.3- 23.7---
2024-04-16 02:18 pm-------30.05- 49.6- 24.1---
2024-04-16 02:12 pm-------30.05- 49.1- 25.0---
2024-04-16 02:06 pm-------30.06- 49.1- 25.0---
2024-04-16 02:00 pm-------30.06-0.06 48.2- 26.8---
2024-04-16 01:54 pm-------30.08- 48.6- 26.4---
2024-04-16 01:48 pm-------30.08- 48.4- 26.2---
2024-04-16 01:42 pm-------30.08- 47.3- 28.6---
2024-04-16 01:36 pm-------30.09- 47.7- 28.8---
2024-04-16 01:30 pm-------30.09- 47.1- 30.0---
2024-04-16 01:24 pm-------30.09- 45.7- 31.3---
2024-04-16 01:18 pm-------30.09- 45.3- 32.0---
2024-04-16 01:12 pm-------30.10- 45.5- 31.8---
2024-04-16 01:06 pm-------30.11- 44.1- 33.1---
2024-04-16 01:00 pm-------30.12-0.01 43.9- 33.4---
2024-04-16 12:54 pm-------30.11- 43.9- 33.3---
2024-04-16 12:48 pm-------30.11- 45.1- 32.7---
2024-04-16 12:42 pm-------30.10- 45.9- 31.8---
2024-04-16 12:36 pm-------30.11- 44.2- 33.3---
2024-04-16 12:30 pm-------30.11- 44.1- 33.4---
2024-04-16 12:24 pm-------30.11- 43.9- 33.6---
2024-04-16 12:18 pm-------30.11- 43.7- 33.8---
2024-04-16 12:12 pm-------30.11- 43.5- 34.5---
2024-04-16 12:06 pm-------30.11- 43.9- 34.3---
2024-04-16 12:00 pm-------30.11-0.05 44.4- 34.2---
2024-04-16 11:54 am-------30.11- 43.7- 34.5---
2024-04-16 11:48 am-------30.11- 43.5- 34.9---
2024-04-16 11:42 am-------30.11- 43.0- 34.9---
2024-04-16 11:36 am-------30.11- 42.4- 34.0---
2024-04-16 11:30 am-------30.11- 42.8- 34.3---
2024-04-16 11:24 am-------30.12- 42.4- 34.5---
2024-04-16 11:18 am-------30.11- 42.3- 34.2---
2024-04-16 11:12 am-------30.11- 42.3- 33.8---
2024-04-16 11:06 am-------30.11- 41.5- 33.6---
2024-04-16 11:00 am-------30.13-0.03 41.7- 34.2---
2024-04-16 10:54 am-------30.13- 41.5- 34.0---
2024-04-16 10:48 am-------30.13- 41.4- 34.0---
2024-04-16 10:42 am-------30.12- 41.5- 33.6---
2024-04-16 10:36 am-------30.12- 42.3- 33.4---
2024-04-16 10:30 am-------30.11- 42.1- 33.3---
2024-04-16 10:24 am-------30.13- 42.6- 33.8---
2024-04-16 10:18 am-------30.13- 42.6- 33.6---
2024-04-16 10:12 am-------30.13- 42.3- 33.3---
2024-04-16 10:06 am-------30.13- 42.4- 33.1---
2024-04-16 10:00 am-------30.13-0.03 43.3- 32.0---
2024-04-16 09:54 am-------30.14- 44.4- 31.8---
2024-04-16 09:48 am-------30.14- 44.1- 31.8---
2024-04-16 09:42 am-------30.14- 44.2- 30.9---
2024-04-16 09:36 am-------30.14- 45.3- 29.8---
2024-04-16 09:30 am-------30.14- 44.2- 31.1---
2024-04-16 09:24 am-------30.15- 44.6- 31.3---
2024-04-16 09:18 am-------30.15- 45.3- 30.6---
2024-04-16 09:12 am-------30.15- 44.2- 31.5---
2024-04-16 09:06 am-------30.16- 43.9- 32.2---
2024-04-16 09:00 am-------30.16+0.02 43.7- 32.5---
2024-04-16 08:54 am-------30.15- 45.0- 31.1---
2024-04-16 08:48 am-------30.15- 44.2- 32.0---
2024-04-16 08:42 am-------30.15- 45.5- 31.6---
2024-04-16 08:36 am-------30.16- 44.8- 32.5---
2024-04-16 08:30 am-------30.16- 43.7- 33.8---
2024-04-16 08:24 am-------30.16- 43.2- 34.7---
2024-04-16 08:18 am-------30.16- 42.6- 35.4---
2024-04-16 08:12 am-------30.15- 42.3- 35.8---
2024-04-16 08:06 am-------30.15- 41.4- 36.1---
2024-04-16 08:00 am-------30.16+0.06 40.8- 36.1---
2024-04-16 07:54 am-------30.15- 40.5- 35.8---
2024-04-16 07:48 am-------30.16- 40.6- 35.8---
2024-04-16 07:42 am-------30.15- 40.6- 35.8---
2024-04-16 07:36 am-------30.16- 40.6- 35.6---
2024-04-16 07:30 am-------30.16- 41.2- 35.1---
2024-04-16 07:24 am-------30.17- 41.5- 35.4---
2024-04-16 07:18 am-------30.16- 41.0- 35.2---
2024-04-16 07:12 am-------30.16- 41.4- 34.7---
2024-04-16 07:06 am-------30.16- 41.0- 34.7---
2024-04-16 07:00 am-------30.16+0.08 40.8- 34.9---
2024-04-16 06:54 am-------30.16- 40.5- 35.1---
2024-04-16 06:48 am-------30.16- 40.3- 35.2---
2024-04-16 06:42 am-------30.17- 40.1- 35.4---
2024-04-16 06:36 am-------30.16- 39.9- 35.8---
2024-04-16 06:30 am-------30.17- 39.6- 35.6---
2024-04-16 06:24 am-------30.17- 39.0- 35.4---
2024-04-16 06:18 am-------30.16- 39.0- 35.6---
2024-04-16 06:12 am-------30.15- 39.0- 36.0---
2024-04-16 06:06 am-------30.15- 39.2- 35.6---
2024-04-16 06:00 am-------30.14+0.03 39.7- 34.0---
2024-04-16 05:54 am-------30.13- 39.9- 34.0---
2024-04-16 05:48 am-------30.13- 39.7- 34.3---
2024-04-16 05:42 am-------30.12- 39.4- 34.9---
2024-04-16 05:36 am-------30.11- 39.4- 35.1---
2024-04-16 05:30 am-------30.10- 39.2- 35.1---
2024-04-16 05:24 am-------30.10- 39.0- 35.2---
2024-04-16 05:18 am-------30.10- 38.8- 35.4---
2024-04-16 05:12 am-------30.10- 38.8- 35.2---
2024-04-16 05:06 am-------30.10- 39.4- 35.2---
2024-04-16 05:00 am-------30.10-0.02 40.1- 34.5---
2024-04-16 04:54 am-------30.10- 40.6- 34.2---
2024-04-16 04:48 am-------30.09- 40.8- 34.2---
2024-04-16 04:42 am-------30.09- 41.2- 34.0---
2024-04-16 04:36 am-------30.09- 41.5- 33.3---
2024-04-16 04:30 am-------30.09- 41.5- 33.3---
2024-04-16 04:24 am-------30.09- 42.1- 32.7---
2024-04-16 04:18 am-------30.09- 41.4- 32.9---
2024-04-16 04:12 am-------30.09- 40.8- 32.9---
2024-04-16 04:06 am-------30.09- 41.4- 33.3---
2024-04-16 04:00 am-------30.09-0.02 41.4- 34.2---
2024-04-16 03:54 am-------30.09- 41.4- 33.8---
2024-04-16 03:48 am-------30.09- 41.4- 33.3---
2024-04-16 03:42 am-------30.09- 40.8- 32.7---
2024-04-16 03:36 am-------30.09- 39.7- 32.7---
2024-04-16 03:30 am-------30.10- 39.4- 33.3---
2024-04-16 03:24 am-------30.10- 38.7- 34.2---
2024-04-16 03:18 am-------30.10- 43.2- 35.2---
2024-04-16 03:12 am-------30.10- 43.3- 34.7---
2024-04-16 03:06 am-------30.11- 42.6- 36.5---
2024-04-16 03:00 am-------30.11+0.01 44.2- 34.2---
2024-04-16 02:54 am-------30.11- 44.1- 33.3---
2024-04-16 02:48 am-------30.11- 42.1- 34.2---
2024-04-16 02:42 am-------30.11- 40.8- 34.2---
2024-04-16 02:36 am-------30.11- 40.1- 34.7---
2024-04-16 02:30 am-------30.11- 40.1- 35.1---
2024-04-16 02:24 am-------30.11- 40.1- 33.1---
2024-04-16 02:18 am-------30.11- 39.6- 33.1---
2024-04-16 02:12 am-------30.11- 38.7- 32.9---
2024-04-16 02:06 am-------30.11- 38.5- 32.4---
2024-04-16 02:00 am-------30.11+0.02 37.9- 32.0---
2024-04-16 01:54 am-------30.11- 37.6- 32.0---
2024-04-16 01:48 am-------30.11- 37.2- 31.5---
2024-04-16 01:42 am-------30.11- 36.9- 31.5---
2024-04-16 01:36 am-------30.11- 37.0- 31.5---
2024-04-16 01:30 am-------30.11- 37.2- 31.5---
2024-04-16 01:24 am-------30.11- 37.0- 31.3---
2024-04-16 01:18 am-------30.11- 37.0- 31.8---
2024-04-16 01:12 am-------30.11- 37.8- 31.8---
2024-04-16 01:06 am-------30.11- 37.8- 31.8---
2024-04-16 01:00 am-------30.11+0.03 37.4- 31.3---
2024-04-16 12:54 am-------30.11- 37.4- 31.3---
2024-04-16 12:48 am-------30.11- 37.0- 31.1---
2024-04-16 12:42 am-------30.11- 36.9- 31.1---
2024-04-16 12:36 am-------30.11- 37.0- 31.3---
2024-04-16 12:30 am-------30.11- 37.2- 31.3---
2024-04-16 12:24 am-------30.11- 37.2- 31.1---
2024-04-16 12:18 am-------30.11- 37.4- 32.0---
2024-04-16 12:12 am-------30.10- 38.1- 32.2---
2024-04-16 12:06 am-------30.10- 37.9- 32.0---
2024-04-16 12:00 am-------30.10+0.01 37.9- 31.8---
2024-04-15 11:54 pm-------30.09- 38.5- 31.5---
2024-04-15 11:48 pm-------30.09- 38.3- 32.2---
2024-04-15 11:42 pm-------30.09- 38.1- 31.6---
2024-04-15 11:36 pm-------30.09- 37.9- 31.3---
2024-04-15 11:30 pm-------30.09- 38.1- 31.8---
2024-04-15 11:24 pm-------30.09- 37.8- 31.5---
2024-04-15 11:18 pm-------30.09- 37.0- 31.8---
2024-04-15 11:12 pm-------30.09- 38.1- 31.6---
2024-04-15 11:06 pm-------30.09- 37.9- 31.3---
2024-04-15 11:00 pm-------30.09+0.02 37.6- 31.5---
2024-04-15 10:54 pm-------30.09- 36.9- 31.5---
2024-04-15 10:48 pm-------30.09- 36.3- 32.4---
2024-04-15 10:42 pm-------30.09- 36.1- 32.0---
2024-04-15 10:36 pm-------30.09- 36.3- 32.2---
2024-04-15 10:30 pm-------30.09- 36.9- 32.4---
2024-04-15 10:24 pm-------30.09- 37.2- 32.2---
2024-04-15 10:18 pm-------30.09- 37.8- 32.5---
2024-04-15 10:12 pm-------30.09- 38.8- 32.7---
2024-04-15 10:06 pm-------30.08- 39.6- 32.2---
2024-04-15 10:00 pm-------30.08+0.02 39.7- 31.6---
2024-04-15 09:54 pm-------30.08- 39.7- 32.2---
2024-04-15 09:48 pm-------30.08- 39.4- 32.4---
2024-04-15 09:42 pm-------30.08- 39.7- 32.5---
2024-04-15 09:36 pm-------30.08- 40.1- 32.4---
2024-04-15 09:30 pm-------30.08-------
2024-04-15 09:24 pm-------30.08-------
2024-04-15 09:18 pm-------30.08- 39.7- 33.6---
2024-04-15 09:12 pm-------30.08- 39.7- 33.4---
2024-04-15 09:06 pm-------30.09- 40.1- 34.2---
2024-04-15 09:00 pm-------30.09+0.04 39.9- 34.3---
2024-04-15 08:54 pm-------30.08- 40.3- 35.2---
2024-04-15 08:48 pm-------30.08- 40.5- 35.2---
2024-04-15 08:42 pm-------30.08- 40.6- 35.2---
2024-04-15 08:36 pm-------30.08- 40.8- 35.6---
2024-04-15 08:30 pm-------30.08- 40.6- 35.4---
2024-04-15 08:24 pm-------30.08- 40.6- 36.1---
2024-04-15 08:18 pm-------30.08- 40.6- 36.3---
2024-04-15 08:12 pm-------30.08- 40.6- 36.1---
2024-04-15 08:06 pm-------30.07- 41.2- 35.8---
2024-04-15 08:00 pm-------30.07+0.03------
2024-04-15 07:54 pm-------30.07-------
2024-04-15 07:48 pm-------30.07- 41.5- 35.6---
2024-04-15 07:42 pm-------30.07- 41.4- 35.6---
2024-04-15 07:36 pm-------30.07- 41.0- 36.3---
2024-04-15 07:30 pm-------30.07- 40.8- 36.7---
2024-04-15 07:24 pm-------30.06- 40.8- 35.8---
2024-04-15 07:18 pm-------30.06-------
2024-04-15 07:12 pm-------30.06-------
2024-04-15 07:06 pm-------30.06-------
2024-04-15 07:00 pm-------30.06+0.01 46.9- 33.1---
2024-04-15 06:54 pm-------30.06- 46.6- 33.3---
2024-04-15 06:48 pm-------30.06- 45.5- 33.8---
2024-04-15 06:42 pm-------30.06- 44.8- 34.5---
2024-04-15 06:36 pm-------30.06- 44.4- 34.0---
2024-04-15 06:30 pm-------30.06- 45.1- 33.6---
2024-04-15 06:24 pm-------30.06- 44.6- 34.0---
2024-04-15 06:18 pm-------30.06- 44.4- 34.3---
2024-04-15 06:12 pm-------30.05- 46.4- 33.6---
2024-04-15 06:06 pm-------30.05- 43.2- 34.5---
2024-04-15 06:00 pm-------30.05+0.00 44.8- 34.5---
2024-04-15 05:54 pm-------30.05- 47.5- 33.3---
2024-04-15 05:48 pm-------30.05- 47.1- 33.6---
2024-04-15 05:42 pm-------30.04- 48.0- 33.4---
2024-04-15 05:36 pm-------30.04- 48.4- 33.3---
2024-04-15 05:30 pm-------30.04-------
2024-04-15 05:24 pm-------30.04-------
2024-04-15 05:18 pm-------30.04- 52.9- 31.5---
2024-04-15 05:12 pm-------30.04- 52.7- 31.6---
2024-04-15 05:06 pm-------30.04- 51.6- 30.7---
2024-04-15 05:00 pm-------30.04+0.00 52.0- 31.3---
2024-04-15 04:54 pm-------30.05- 51.8- 31.6---
2024-04-15 04:48 pm-------30.05- 50.7- 31.6---
2024-04-15 04:42 pm-------30.05- 51.1- 32.5---
2024-04-15 04:36 pm-------30.04- 50.0- 32.5---
2024-04-15 04:30 pm-------30.05- 50.4- 32.2---
2024-04-15 04:24 pm-------30.05- 50.5- 32.5---
2024-04-15 04:18 pm--------- 50.9- 32.2---
2024-04-15 04:12 pm--------- 50.9- 32.4---
2024-04-15 04:06 pm--------- 50.0- 32.2---
2024-04-15 04:00 pm-------30.04+0.01 50.2- 32.9---
2024-04-15 03:54 pm-------30.05- 49.3- 33.3---